Location: *
(51.5000°N, 0.1100°W)
Time: 01:25:30
(UTC+00:00)

MSX - Pass Details

Date: 12 August 2024
Orbit: 895 x 904 km, 99.0° (Epoch: 09 September)

Event Time Altitude Azimuth Distance (km) Brightness Sun altitude
Rises 03:48:44 0° 8° (N) 3,545 7.7 -7.9°
Reaches altitude 10° 03:51:42 10° 354° (N) 2,600 6.7 -7.5°
Maximum altitude 03:55:52 21° 307° (NW) 1,923 5.4 -7.0°
Drops below altitude 10° 04:00:01 10° 261° (W) 2,588 5.7 -6.5°
Enters shadow 04:01:10 - 254° (WSW) 2,929 5.9 -6.3°
